owner,sensor,date,latitude,longitude,vertical_datum,mass_concentration_of_oxygen_in_sea_water,qcFlag 
SCCF RECON,ioos:station:SCCF:51:1,2011-09-01T00:00:00Z,26.5545,-82.1715,1.76,4.98,1111122 
SCCF RECON,ioos:station:SCCF:51:1,2011-09-01T01:00:00Z,26.5545,-82.1715,1.692,4.98,1111122 
SCCF RECON,ioos:station:SCCF:51:1,2011-09-01T02:00:00Z,26.5545,-82.1715,1.669,5.34,1111122 
SCCF RECON,ioos:station:SCCF:51:1,2011-09-01T03:00:00Z,26.5545,-82.1715,1.71,5.55,1111122 
SCCF RECON,ioos:station:SCCF:51:1,2011-09-01T04:00:00Z,26.5545,-82.1715,1.808,5.43,1111122 
SCCF RECON,ioos:station:SCCF:51:1,2011-09-01T05:00:00Z,26.5545,-82.1715,1.96,5.2,1111122 
SCCF RECON,ioos:station:SCCF:51:1,2011-09-01T06:00:00Z,26.5545,-82.1715,2.1,4.9,1111122 
SCCF RECON,ioos:station:SCCF:51:1,2011-09-01T07:00:00Z,26.5545,-82.1715,2.17,5.04,1111122 
SCCF RECON,ioos:station:SCCF:51:1,2011-09-01T08:00:00Z,26.5545,-82.1715,2.14,4.89,1111122 
SCCF RECON,ioos:station:SCCF:51:1,2011-09-01T09:00:00Z,26.5545,-82.1715,2.057,4.9,1111122 
SCCF RECON,ioos:station:SCCF:51:1,2011-09-01T10:00:00Z,26.5545,-82.1715,1.96,4.61,1111122 
SCCF RECON,ioos:station:SCCF:51:1,2011-09-01T11:00:00Z,26.5545,-82.1715,1.84,4.39,1111122 
SCCF RECON,ioos:station:SCCF:51:1,2011-09-01T12:00:00Z,26.5545,-82.1715,1.711,4.73,1111122 
SCCF RECON,ioos:station:SCCF:51:1,2011-09-01T13:00:00Z,26.5545,-82.1715,1.601,4.48,1111122 
SCCF RECON,ioos:station:SCCF:51:1,2011-09-01T14:00:00Z,26.5545,-82.1715,1.521,4.94,1111122 
SCCF RECON,ioos:station:SCCF:51:1,2011-09-01T15:00:00Z,26.5545,-82.1715,1.5,5.19,1111122 
SCCF RECON,ioos:station:SCCF:51:1,2011-09-01T16:00:00Z,26.5545,-82.1715,1.554,5.92,1111122 
SCCF RECON,ioos:station:SCCF:51:1,2011-09-01T17:00:00Z,26.5545,-82.1715,1.659,6.77,1111122 
SCCF RECON,ioos:station:SCCF:51:1,2011-09-01T18:00:00Z,26.5545,-82.1715,1.788,5.68,1111122 
SCCF RECON,ioos:station:SCCF:51:1,2011-09-01T19:00:00Z,26.5545,-82.1715,1.91,6.3,1111122 
SCCF RECON,ioos:station:SCCF:51:1,2011-09-01T20:00:00Z,26.5545,-82.1715,1.981,5.88,1111122 
SCCF RECON,ioos:station:SCCF:51:1,2011-09-01T21:00:00Z,26.5545,-82.1715,2.009,6.37,1111122 
SCCF RECON,ioos:station:SCCF:51:1,2011-09-01T22:00:00Z,26.5545,-82.1715,1.974,7.3,1111122 
SCCF RECON,ioos:station:SCCF:51:1,2011-09-01T23:00:00Z,26.5545,-82.1715,1.911,6.9,1111122 
SCCF RECON,ioos:station:SCCF:51:1,2011-09-02T00:00:00Z,26.5545,-82.1715,1.865,8.34,1111122 
SCCF RECON,ioos:station:SCCF:51:1,2011-09-02T01:00:00Z,26.5545,-82.1715,1.768,8.21,1111122 
SCCF RECON,ioos:station:SCCF:51:1,2011-09-02T02:00:00Z,26.5545,-82.1715,1.719,8.26,1111122 
SCCF RECON,ioos:station:SCCF:51:1,2011-09-02T03:00:00Z,26.5545,-82.1715,1.736,8.24,1111122 
SCCF RECON,ioos:station:SCCF:51:1,2011-09-02T04:00:00Z,26.5545,-82.1715,1.79,7.42,1111122 
SCCF RECON,ioos:station:SCCF:51:1,2011-09-02T05:00:00Z,26.5545,-82.1715,1.886,6.67,1111122 
SCCF RECON,ioos:station:SCCF:51:1,2011-09-02T06:00:00Z,26.5545,-82.1715,2.019,5.91,1111122 
SCCF RECON,ioos:station:SCCF:51:1,2011-09-02T07:00:00Z,26.5545,-82.1715,2.13,5.41,1111122 
SCCF RECON,ioos:station:SCCF:51:1,2011-09-02T08:00:00Z,26.5545,-82.1715,2.165,5.4,1111122 
SCCF RECON,ioos:station:SCCF:51:1,2011-09-02T09:00:00Z,26.5545,-82.1715,2.136,6.03,1111122 
SCCF RECON,ioos:station:SCCF:51:1,2011-09-02T10:00:00Z,26.5545,-82.1715,2.06,5.97,1111122 
SCCF RECON,ioos:station:SCCF:51:1,2011-09-02T11:00:00Z,26.5545,-82.1715,1.969,5.65,1111122 
SCCF RECON,ioos:station:SCCF:51:1,2011-09-02T12:00:00Z,26.5545,-82.1715,1.84,5.93,1111122 
SCCF RECON,ioos:station:SCCF:51:1,2011-09-02T13:00:00Z,26.5545,-82.1715,1.716,6.01,1111122 
SCCF RECON,ioos:station:SCCF:51:1,2011-09-02T14:00:00Z,26.5545,-82.1715,1.607,5.95,1111122 
SCCF RECON,ioos:station:SCCF:51:1,2011-09-02T15:00:00Z,26.5545,-82.1715,1.524,6.29,1111122 
SCCF RECON,ioos:station:SCCF:51:1,2011-09-02T16:00:00Z,26.5545,-82.1715,1.507,6.66,1111122 
SCCF RECON,ioos:station:SCCF:51:1,2011-09-02T17:00:00Z,26.5545,-82.1715,1.58,8.22,1111122 
SCCF RECON,ioos:station:SCCF:51:1,2011-09-02T18:00:00Z,26.5545,-82.1715,1.669,8.12,1111122 
SCCF RECON,ioos:station:SCCF:51:1,2011-09-02T19:00:00Z,26.5545,-82.1715,1.801,7.33,1111122 
SCCF RECON,ioos:station:SCCF:51:1,2011-09-02T20:00:00Z,26.5545,-82.1715,1.898,6.78,1111122 
SCCF RECON,ioos:station:SCCF:51:1,2011-09-02T21:00:00Z,26.5545,-82.1715,1.946,6.54,1111122 
SCCF RECON,ioos:station:SCCF:51:1,2011-09-02T22:00:00Z,26.5545,-82.1715,1.949,7.99,1111122 
SCCF RECON,ioos:station:SCCF:51:1,2011-09-02T23:00:00Z,26.5545,-82.1715,1.951,8.69,1111122 
SCCF RECON,ioos:station:SCCF:51:1,2011-09-03T00:00:00Z,26.5545,-82.1715,1.922,8.34,1111122 
SCCF RECON,ioos:station:SCCF:51:1,2011-09-03T01:00:00Z,26.5545,-82.1715,1.898,8.17,1111122 
SCCF RECON,ioos:station:SCCF:51:1,2011-09-03T02:00:00Z,26.5545,-82.1715,1.88,8.37,1111122 
SCCF RECON,ioos:station:SCCF:51:1,2011-09-03T03:00:00Z,26.5545,-82.1715,1.89,8.67,1111122 
SCCF RECON,ioos:station:SCCF:51:1,2011-09-03T04:00:00Z,26.5545,-82.1715,1.9,8.61,1111122 
SCCF RECON,ioos:station:SCCF:51:1,2011-09-03T05:00:00Z,26.5545,-82.1715,1.96,8.27,1111122 
SCCF RECON,ioos:station:SCCF:51:1,2011-09-03T06:00:00Z,26.5545,-82.1715,2.042,7.47,1111122 
SCCF RECON,ioos:station:SCCF:51:1,2011-09-03T07:00:00Z,26.5545,-82.1715,2.126,7.28,1111122 
SCCF RECON,ioos:station:SCCF:51:1,2011-09-03T08:00:00Z,26.5545,-82.1715,2.161,5.86,1111122 
SCCF RECON,ioos:station:SCCF:51:1,2011-09-03T09:00:00Z,26.5545,-82.1715,2.141,5.96,1111122 
SCCF RECON,ioos:station:SCCF:51:1,2011-09-03T10:00:00Z,26.5545,-82.1715,2.083,6.94,1111122 
SCCF RECON,ioos:station:SCCF:51:1,2011-09-03T11:00:00Z,26.5545,-82.1715,2.021,7.07,1111122 
SCCF RECON,ioos:station:SCCF:51:1,2011-09-03T12:00:00Z,26.5545,-82.1715,1.943,6.65,1111122 
SCCF RECON,ioos:station:SCCF:51:1,2011-09-03T13:00:00Z,26.5545,-82.1715,1.838,6.28,1111122 
SCCF RECON,ioos:station:SCCF:51:1,2011-09-03T14:00:00Z,26.5545,-82.1715,1.724,6.13,1111122 
SCCF RECON,ioos:station:SCCF:51:1,2011-09-03T15:00:00Z,26.5545,-82.1715,1.62,6.62,1111122 
SCCF RECON,ioos:station:SCCF:51:1,2011-09-03T16:00:00Z,26.5545,-82.1715,1.526,7.0,1111122 
SCCF RECON,ioos:station:SCCF:51:1,2011-09-03T17:00:00Z,26.5545,-82.1715,1.488,7.55,1111122 
SCCF RECON,ioos:station:SCCF:51:1,2011-09-03T18:00:00Z,26.5545,-82.1715,1.516,7.81,1111122 
SCCF RECON,ioos:station:SCCF:51:1,2011-09-03T19:00:00Z,26.5545,-82.1715,1.617,8.98,1111122 
SCCF RECON,ioos:station:SCCF:51:1,2011-09-03T20:00:00Z,26.5545,-82.1715,1.718,8.14,1111122 
SCCF RECON,ioos:station:SCCF:51:1,2011-09-03T21:00:00Z,26.5545,-82.1715,1.802,7.42,1111122 
SCCF RECON,ioos:station:SCCF:51:1,2011-09-03T22:00:00Z,26.5545,-82.1715,1.854,7.59,1111122 
SCCF RECON,ioos:station:SCCF:51:1,2011-09-03T23:00:00Z,26.5545,-82.1715,1.884,7.46,1111122 
SCCF RECON,ioos:station:SCCF:51:1,2011-09-04T00:00:00Z,26.5545,-82.1715,1.871,8.28,1111122 
SCCF RECON,ioos:station:SCCF:51:1,2011-09-04T01:00:00Z,26.5545,-82.1715,1.867,8.53,1111122 
SCCF RECON,ioos:station:SCCF:51:1,2011-09-04T02:00:00Z,26.5545,-82.1715,1.866,8.77,1111122 
SCCF RECON,ioos:station:SCCF:51:1,2011-09-04T03:00:00Z,26.5545,-82.1715,1.862,8.36,1111122 
SCCF RECON,ioos:station:SCCF:51:1,2011-09-04T04:00:00Z,26.5545,-82.1715,1.882,7.92,1111122 
SCCF RECON,ioos:station:SCCF:51:1,2011-09-04T05:00:00Z,26.5545,-82.1715,1.913,7.86,1111122 
SCCF RECON,ioos:station:SCCF:51:1,2011-09-04T06:00:00Z,26.5545,-82.1715,1.969,7.76,1111122 
SCCF RECON,ioos:station:SCCF:51:1,2011-09-04T07:00:00Z,26.5545,-82.1715,2.035,6.53,1111122 
SCCF RECON,ioos:station:SCCF:51:1,2011-09-04T08:00:00Z,26.5545,-82.1715,2.117,6.68,1111122 
SCCF RECON,ioos:station:SCCF:51:1,2011-09-04T09:00:00Z,26.5545,-82.1715,2.169,6.55,1111122 
SCCF RECON,ioos:station:SCCF:51:1,2011-09-04T10:00:00Z,26.5545,-82.1715,2.18,6.35,1111122 
SCCF RECON,ioos:station:SCCF:51:1,2011-09-04T11:00:00Z,26.5545,-82.1715,2.155,6.25,1111122 
SCCF RECON,ioos:station:SCCF:51:1,2011-09-04T12:00:00Z,26.5545,-82.1715,2.101,6.67,1111122 
SCCF RECON,ioos:station:SCCF:51:1,2011-09-04T13:00:00Z,26.5545,-82.1715,2.025,6.45,1111122 
SCCF RECON,ioos:station:SCCF:51:1,2011-09-04T14:00:00Z,26.5545,-82.1715,1.923,6.27,1111122 
SCCF RECON,ioos:station:SCCF:51:1,2011-09-04T15:00:00Z,26.5545,-82.1715,1.815,6.21,1111122 
SCCF RECON,ioos:station:SCCF:51:1,2011-09-04T16:00:00Z,26.5545,-82.1715,1.708,6.51,1111122 
SCCF RECON,ioos:station:SCCF:51:1,2011-09-04T17:00:00Z,26.5545,-82.1715,1.627,6.83,1111122 
SCCF RECON,ioos:station:SCCF:51:1,2011-09-04T18:00:00Z,26.5545,-82.1715,1.584,7.06,1111122 
SCCF RECON,ioos:station:SCCF:51:1,2011-09-04T19:00:00Z,26.5545,-82.1715,1.616,7.6,1111122 
SCCF RECON,ioos:station:SCCF:51:1,2011-09-04T20:00:00Z,26.5545,-82.1715,1.692,7.67,1111122 
SCCF RECON,ioos:station:SCCF:51:1,2011-09-04T21:00:00Z,26.5545,-82.1715,1.78,7.59,1111122 
SCCF RECON,ioos:station:SCCF:51:1,2011-09-04T22:00:00Z,26.5545,-82.1715,1.84,7.16,1111122 
SCCF RECON,ioos:station:SCCF:51:1,2011-09-04T23:00:00Z,26.5545,-82.1715,1.886,7.02,1111122 
SCCF RECON,ioos:station:SCCF:51:1,2011-09-05T00:00:00Z,26.5545,-82.1715,1.904,6.9,1111122 
SCCF RECON,ioos:station:SCCF:51:1,2011-09-05T01:00:00Z,26.5545,-82.1715,1.935,6.94,1111122 
SCCF RECON,ioos:station:SCCF:51:1,2011-09-05T02:00:00Z,26.5545,-82.1715,1.945,7.12,1111122 
SCCF RECON,ioos:station:SCCF:51:1,2011-09-05T03:00:00Z,26.5545,-82.1715,1.944,6.96,1111122 
SCCF RECON,ioos:station:SCCF:51:1,2011-09-05T04:00:00Z,26.5545,-82.1715,1.957,7.14,1111122 
SCCF RECON,ioos:station:SCCF:51:1,2011-09-05T05:00:00Z,26.5545,-82.1715,1.972,6.87,1111122 
SCCF RECON,ioos:station:SCCF:51:1,2011-09-05T06:00:00Z,26.5545,-82.1715,1.982,6.62,1111122 
SCCF RECON,ioos:station:SCCF:51:1,2011-09-05T07:00:00Z,26.5545,-82.1715,1.983,6.67,1111122 
SCCF RECON,ioos:station:SCCF:51:1,2011-09-05T08:00:00Z,26.5545,-82.1715,2.042,6.03,1111122 
SCCF RECON,ioos:station:SCCF:51:1,2011-09-05T09:00:00Z,26.5545,-82.1715,2.115,5.87,1111122 
SCCF RECON,ioos:station:SCCF:51:1,2011-09-05T10:00:00Z,26.5545,-82.1715,2.179,5.69,1111122 
SCCF RECON,ioos:station:SCCF:51:1,2011-09-05T11:00:00Z,26.5545,-82.1715,2.184,5.59,1111122 
SCCF RECON,ioos:station:SCCF:51:1,2011-09-05T12:00:00Z,26.5545,-82.1715,2.172,5.63,1111122 
SCCF RECON,ioos:station:SCCF:51:1,2011-09-05T13:00:00Z,26.5545,-82.1715,2.135,5.8,1111122 
SCCF RECON,ioos:station:SCCF:51:1,2011-09-05T14:00:00Z,26.5545,-82.1715,2.064,5.7,1111122 
SCCF RECON,ioos:station:SCCF:51:1,2011-09-05T15:00:00Z,26.5545,-82.1715,1.974,5.67,1111122 
SCCF RECON,ioos:station:SCCF:51:1,2011-09-05T16:00:00Z,26.5545,-82.1715,1.873,5.74,1111122 
SCCF RECON,ioos:station:SCCF:51:1,2011-09-05T17:00:00Z,26.5545,-82.1715,1.772,5.95,1111122 
SCCF RECON,ioos:station:SCCF:51:1,2011-09-05T18:00:00Z,26.5545,-82.1715,1.68,6.1,1111122 
SCCF RECON,ioos:station:SCCF:51:1,2011-09-05T19:00:00Z,26.5545,-82.1715,1.621,6.32,1111122 
SCCF RECON,ioos:station:SCCF:51:1,2011-09-05T20:00:00Z,26.5545,-82.1715,1.629,6.54,1111122 
SCCF RECON,ioos:station:SCCF:51:1,2011-09-05T21:00:00Z,26.5545,-82.1715,1.693,6.75,1111122 
SCCF RECON,ioos:station:SCCF:51:1,2011-09-05T22:00:00Z,26.5545,-82.1715,1.766,6.93,1111122 
SCCF RECON,ioos:station:SCCF:51:1,2011-09-05T23:00:00Z,26.5545,-82.1715,1.836,6.89,1111122 
SCCF RECON,ioos:station:SCCF:51:1,2011-09-06T00:00:00Z,26.5545,-82.1715,1.912,6.73,1111122 
SCCF RECON,ioos:station:SCCF:51:1,2011-09-06T01:00:00Z,26.5545,-82.1715,1.961,5.95,1111122 
SCCF RECON,ioos:station:SCCF:51:1,2011-09-06T02:00:00Z,26.5545,-82.1715,1.993,5.63,1111122 
SCCF RECON,ioos:station:SCCF:51:1,2011-09-06T03:00:00Z,26.5545,-82.1715,2.029,5.82,1111122 
SCCF RECON,ioos:station:SCCF:51:1,2011-09-06T04:00:00Z,26.5545,-82.1715,2.013,5.97,1111122 
SCCF RECON,ioos:station:SCCF:51:1,2011-09-06T05:00:00Z,26.5545,-82.1715,2.009,5.87,1111122 
SCCF RECON,ioos:station:SCCF:51:1,2011-09-06T06:00:00Z,26.5545,-82.1715,1.99,5.93,1111122 
SCCF RECON,ioos:station:SCCF:51:1,2011-09-06T07:00:00Z,26.5545,-82.1715,2.011,5.75,1111122 
SCCF RECON,ioos:station:SCCF:51:1,2011-09-06T08:00:00Z,26.5545,-82.1715,2.042,5.76,1111122 
SCCF RECON,ioos:station:SCCF:51:1,2011-09-06T09:00:00Z,26.5545,-82.1715,2.116,5.81,1111122 
SCCF RECON,ioos:station:SCCF:51:1,2011-09-06T10:00:00Z,26.5545,-82.1715,2.194,5.19,1111122 
SCCF RECON,ioos:station:SCCF:51:1,2011-09-06T11:00:00Z,26.5545,-82.1715,2.263,5.32,1111122 
SCCF RECON,ioos:station:SCCF:51:1,2011-09-06T12:00:00Z,26.5545,-82.1715,2.285,5.34,1111122 
SCCF RECON,ioos:station:SCCF:51:1,2011-09-06T13:00:00Z,26.5545,-82.1715,2.253,5.46,1111122 
SCCF RECON,ioos:station:SCCF:51:1,2011-09-06T14:00:00Z,26.5545,-82.1715,2.221,5.53,1111122 
SCCF RECON,ioos:station:SCCF:51:1,2011-09-06T15:00:00Z,26.5545,-82.1715,2.175,5.58,1111122 
SCCF RECON,ioos:station:SCCF:51:1,2011-09-06T16:00:00Z,26.5545,-82.1715,2.09,5.59,1111122 
SCCF RECON,ioos:station:SCCF:51:1,2011-09-06T17:00:00Z,26.5545,-82.1715,1.987,5.49,1111122 
SCCF RECON,ioos:station:SCCF:51:1,2011-09-06T18:00:00Z,26.5545,-82.1715,1.875,5.82,1111122 
SCCF RECON,ioos:station:SCCF:51:1,2011-09-06T19:00:00Z,26.5545,-82.1715,1.767,5.72,1111122 
SCCF RECON,ioos:station:SCCF:51:1,2011-09-06T20:00:00Z,26.5545,-82.1715,1.676,5.45,1111122 
SCCF RECON,ioos:station:SCCF:51:1,2011-09-06T21:00:00Z,26.5545,-82.1715,1.61,5.43,1111122 
SCCF RECON,ioos:station:SCCF:51:1,2011-09-06T22:00:00Z,26.5545,-82.1715,1.626,5.27,1111122 
SCCF RECON,ioos:station:SCCF:51:1,2011-09-06T23:00:00Z,26.5545,-82.1715,1.65,5.38,1111122 
SCCF RECON,ioos:station:SCCF:51:1,2011-09-07T00:00:00Z,26.5545,-82.1715,1.706,5.74,1111122 
SCCF RECON,ioos:station:SCCF:51:1,2011-09-07T01:00:00Z,26.5545,-82.1715,1.787,4.48,1111122 
SCCF RECON,ioos:station:SCCF:51:1,2011-09-07T02:00:00Z,26.5545,-82.1715,1.876,5.24,1111122 
SCCF RECON,ioos:station:SCCF:51:1,2011-09-07T03:00:00Z,26.5545,-82.1715,1.941,5.42,1111122 
SCCF RECON,ioos:station:SCCF:51:1,2011-09-07T04:00:00Z,26.5545,-82.1715,1.981,5.2,1111122 
SCCF RECON,ioos:station:SCCF:51:1,2011-09-07T05:00:00Z,26.5545,-82.1715,1.957,4.91,1111122 
SCCF RECON,ioos:station:SCCF:51:1,2011-09-07T06:00:00Z,26.5545,-82.1715,1.929,4.88,1111122 
SCCF RECON,ioos:station:SCCF:51:1,2011-09-07T07:00:00Z,26.5545,-82.1715,1.882,5.13,1111122 
SCCF RECON,ioos:station:SCCF:51:1,2011-09-07T08:00:00Z,26.5545,-82.1715,1.908,5.05,1111122 
SCCF RECON,ioos:station:SCCF:51:1,2011-09-07T09:00:00Z,26.5545,-82.1715,1.96,5.17,1111122 
SCCF RECON,ioos:station:SCCF:51:1,2011-09-07T10:00:00Z,26.5545,-82.1715,2.032,5.38,1111122 
SCCF RECON,ioos:station:SCCF:51:1,2011-09-07T11:00:00Z,26.5545,-82.1715,2.057,5.33,1111122 
SCCF RECON,ioos:station:SCCF:51:1,2011-09-07T12:00:00Z,26.5545,-82.1715,2.119,5.21,1111122 
SCCF RECON,ioos:station:SCCF:51:1,2011-09-07T13:00:00Z,26.5545,-82.1715,2.156,5.26,1111122 
SCCF RECON,ioos:station:SCCF:51:1,2011-09-07T14:00:00Z,26.5545,-82.1715,2.118,5.17,1111122 
SCCF RECON,ioos:station:SCCF:51:1,2011-09-07T15:00:00Z,26.5545,-82.1715,2.052,5.08,1111122 
SCCF RECON,ioos:station:SCCF:51:1,2011-09-07T16:00:00Z,26.5545,-82.1715,1.982,4.96,1111122 
SCCF RECON,ioos:station:SCCF:51:1,2011-09-07T17:00:00Z,26.5545,-82.1715,1.902,5.19,1111122 
SCCF RECON,ioos:station:SCCF:51:1,2011-09-07T18:00:00Z,26.5545,-82.1715,1.792,6.18,1111122 
SCCF RECON,ioos:station:SCCF:51:1,2011-09-07T19:00:00Z,26.5545,-82.1715,1.68,6.34,1111122 
SCCF RECON,ioos:station:SCCF:51:1,2011-09-07T20:00:00Z,26.5545,-82.1715,1.609,6.42,1111122 
SCCF RECON,ioos:station:SCCF:51:1,2011-09-07T21:00:00Z,26.5545,-82.1715,1.534,6.48,1111122 
SCCF RECON,ioos:station:SCCF:51:1,2011-09-07T22:00:00Z,26.5545,-82.1715,1.502,6.99,1111122 
SCCF RECON,ioos:station:SCCF:51:1,2011-09-07T23:00:00Z,26.5545,-82.1715,1.553,7.05,1111122 
SCCF RECON,ioos:station:SCCF:51:1,2011-09-08T00:00:00Z,26.5545,-82.1715,1.66,6.72,1111122 
SCCF RECON,ioos:station:SCCF:51:1,2011-09-08T01:00:00Z,26.5545,-82.1715,1.758,6.16,1111122 
SCCF RECON,ioos:station:SCCF:51:1,2011-09-08T02:00:00Z,26.5545,-82.1715,1.851,6.22,1111122 
SCCF RECON,ioos:station:SCCF:51:1,2011-09-08T03:00:00Z,26.5545,-82.1715,1.912,5.73,1111122 
SCCF RECON,ioos:station:SCCF:51:1,2011-09-08T04:00:00Z,26.5545,-82.1715,1.941,5.82,1111122 
SCCF RECON,ioos:station:SCCF:51:1,2011-09-08T05:00:00Z,26.5545,-82.1715,1.939,6.13,1111122 
SCCF RECON,ioos:station:SCCF:51:1,2011-09-08T06:00:00Z,26.5545,-82.1715,1.889,6.11,1111122 
SCCF RECON,ioos:station:SCCF:51:1,2011-09-08T07:00:00Z,26.5545,-82.1715,1.82,6.23,1111122 
SCCF RECON,ioos:station:SCCF:51:1,2011-09-08T08:00:00Z,26.5545,-82.1715,1.773,5.21,1111122 
SCCF RECON,ioos:station:SCCF:51:1,2011-09-08T09:00:00Z,26.5545,-82.1715,1.765,5.46,1111122 
SCCF RECON,ioos:station:SCCF:51:1,2011-09-08T10:00:00Z,26.5545,-82.1715,1.8,5.05,1111122 
SCCF RECON,ioos:station:SCCF:51:1,2011-09-08T11:00:00Z,26.5545,-82.1715,1.86,4.94,1111122 
SCCF RECON,ioos:station:SCCF:51:1,2011-09-08T12:00:00Z,26.5545,-82.1715,1.937,5.22,1111122 
SCCF RECON,ioos:station:SCCF:51:1,2011-09-08T13:00:00Z,26.5545,-82.1715,2.017,5.4,1111122 
SCCF RECON,ioos:station:SCCF:51:1,2011-09-08T14:00:00Z,26.5545,-82.1715,2.077,5.04,1111122 
SCCF RECON,ioos:station:SCCF:51:1,2011-09-08T15:00:00Z,26.5545,-82.1715,2.109,5.05,1111122 
SCCF RECON,ioos:station:SCCF:51:1,2011-09-08T16:00:00Z,26.5545,-82.1715,2.068,5.85,1111122 
SCCF RECON,ioos:station:SCCF:51:1,2011-09-08T17:00:00Z,26.5545,-82.1715,1.993,6.17,1111122 
SCCF RECON,ioos:station:SCCF:51:1,2011-09-08T18:00:00Z,26.5545,-82.1715,1.893,6.15,1111122 
SCCF RECON,ioos:station:SCCF:51:1,2011-09-08T19:00:00Z,26.5545,-82.1715,1.772,6.36,1111122 
SCCF RECON,ioos:station:SCCF:51:1,2011-09-08T20:00:00Z,26.5545,-82.1715,1.664,6.39,1111122 
SCCF RECON,ioos:station:SCCF:51:1,2011-09-08T21:00:00Z,26.5545,-82.1715,1.57,7.0,1111122 
SCCF RECON,ioos:station:SCCF:51:1,2011-09-08T22:00:00Z,26.5545,-82.1715,1.507,7.49,1111122 
SCCF RECON,ioos:station:SCCF:51:1,2011-09-08T23:00:00Z,26.5545,-82.1715,1.532,7.48,1111122 
SCCF RECON,ioos:station:SCCF:51:1,2011-09-09T00:00:00Z,26.5545,-82.1715,1.61,7.19,1111122 
SCCF RECON,ioos:station:SCCF:51:1,2011-09-09T01:00:00Z,26.5545,-82.1715,1.69,6.39,1111122 
SCCF RECON,ioos:station:SCCF:51:1,2011-09-09T02:00:00Z,26.5545,-82.1715,1.791,6.3,1111122 
SCCF RECON,ioos:station:SCCF:51:1,2011-09-09T03:00:00Z,26.5545,-82.1715,1.85,6.23,1111122 
SCCF RECON,ioos:station:SCCF:51:1,2011-09-09T04:00:00Z,26.5545,-82.1715,1.902,6.18,1111122 
SCCF RECON,ioos:station:SCCF:51:1,2011-09-09T05:00:00Z,26.5545,-82.1715,1.914,5.96,1111122 
SCCF RECON,ioos:station:SCCF:51:1,2011-09-09T06:00:00Z,26.5545,-82.1715,1.868,5.77,1111122 
SCCF RECON,ioos:station:SCCF:51:1,2011-09-09T07:00:00Z,26.5545,-82.1715,1.8,5.6,1111122 
SCCF RECON,ioos:station:SCCF:51:1,2011-09-09T08:00:00Z,26.5545,-82.1715,1.72,5.2,1111122 
SCCF RECON,ioos:station:SCCF:51:1,2011-09-09T09:00:00Z,26.5545,-82.1715,1.649,5.14,1111122 
SCCF RECON,ioos:station:SCCF:51:1,2011-09-09T10:00:00Z,26.5545,-82.1715,1.621,5.57,1111122 
SCCF RECON,ioos:station:SCCF:51:1,2011-09-09T11:00:00Z,26.5545,-82.1715,1.68,5.47,1111122 
SCCF RECON,ioos:station:SCCF:51:1,2011-09-09T12:00:00Z,26.5545,-82.1715,1.752,5.44,1111122 
SCCF RECON,ioos:station:SCCF:51:1,2011-09-09T13:00:00Z,26.5545,-82.1715,1.864,5.52,1111122 
SCCF RECON,ioos:station:SCCF:51:1,2011-09-09T14:00:00Z,26.5545,-82.1715,1.98,5.34,1111122 
SCCF RECON,ioos:station:SCCF:51:1,2011-09-09T15:00:00Z,26.5545,-82.1715,2.05,5.23,1111122 
SCCF RECON,ioos:station:SCCF:51:1,2011-09-09T16:00:00Z,26.5545,-82.1715,2.065,5.51,1111122 
SCCF RECON,ioos:station:SCCF:51:1,2011-09-09T17:00:00Z,26.5545,-82.1715,2.02,6.36,1111122 
SCCF RECON,ioos:station:SCCF:51:1,2011-09-09T18:00:00Z,26.5545,-82.1715,1.933,6.71,1111122 
SCCF RECON,ioos:station:SCCF:51:1,2011-09-09T19:00:00Z,26.5545,-82.1715,1.828,6.49,1111122 
SCCF RECON,ioos:station:SCCF:51:1,2011-09-09T20:00:00Z,26.5545,-82.1715,1.704,6.57,1111122 
SCCF RECON,ioos:station:SCCF:51:1,2011-09-09T21:00:00Z,26.5545,-82.1715,1.618,6.78,1111122 
SCCF RECON,ioos:station:SCCF:51:1,2011-09-09T22:00:00Z,26.5545,-82.1715,1.571,6.8,1111122 
SCCF RECON,ioos:station:SCCF:51:1,2011-09-09T23:00:00Z,26.5545,-82.1715,1.482,6.86,1111122 
SCCF RECON,ioos:station:SCCF:51:1,2011-09-10T00:00:00Z,26.5545,-82.1715,1.494,6.84,1111122 
SCCF RECON,ioos:station:SCCF:51:1,2011-09-10T01:00:00Z,26.5545,-82.1715,1.58,6.58,1111122 
SCCF RECON,ioos:station:SCCF:51:1,2011-09-10T02:00:00Z,26.5545,-82.1715,1.672,6.48,1111122 
SCCF RECON,ioos:station:SCCF:51:1,2011-09-10T03:00:00Z,26.5545,-82.1715,1.787,6.23,1111122 
SCCF RECON,ioos:station:SCCF:51:1,2011-09-10T04:00:00Z,26.5545,-82.1715,1.89,6.12,1111122 
SCCF RECON,ioos:station:SCCF:51:1,2011-09-10T05:00:00Z,26.5545,-82.1715,1.92,5.87,1111122 
SCCF RECON,ioos:station:SCCF:51:1,2011-09-10T06:00:00Z,26.5545,-82.1715,1.871,5.97,1111122 
SCCF RECON,ioos:station:SCCF:51:1,2011-09-10T07:00:00Z,26.5545,-82.1715,1.8,5.84,1111122 
SCCF RECON,ioos:station:SCCF:51:1,2011-09-10T08:00:00Z,26.5545,-82.1715,1.71,5.83,1111122 
SCCF RECON,ioos:station:SCCF:51:1,2011-09-10T09:00:00Z,26.5545,-82.1715,1.63,5.59,1111122 
SCCF RECON,ioos:station:SCCF:51:1,2011-09-10T10:00:00Z,26.5545,-82.1715,1.59,5.59,1111122 
SCCF RECON,ioos:station:SCCF:51:1,2011-09-10T11:00:00Z,26.5545,-82.1715,1.623,5.61,1111122 
SCCF RECON,ioos:station:SCCF:51:1,2011-09-10T12:00:00Z,26.5545,-82.1715,1.698,5.77,1111122 
SCCF RECON,ioos:station:SCCF:51:1,2011-09-10T13:00:00Z,26.5545,-82.1715,1.802,5.29,1111122 
SCCF RECON,ioos:station:SCCF:51:1,2011-09-10T14:00:00Z,26.5545,-82.1715,1.94,5.52,1111122 
SCCF RECON,ioos:station:SCCF:51:1,2011-09-10T15:00:00Z,26.5545,-82.1715,2.043,5.53,1111122 
SCCF RECON,ioos:station:SCCF:51:1,2011-09-10T16:00:00Z,26.5545,-82.1715,2.091,5.81,1111122 
SCCF RECON,ioos:station:SCCF:51:1,2011-09-10T17:00:00Z,26.5545,-82.1715,2.076,6.33,1111122 
SCCF RECON,ioos:station:SCCF:51:1,2011-09-10T18:00:00Z,26.5545,-82.1715,2.013,6.54,1111122 
SCCF RECON,ioos:station:SCCF:51:1,2011-09-10T19:00:00Z,26.5545,-82.1715,1.915,6.76,1111122 
SCCF RECON,ioos:station:SCCF:51:1,2011-09-10T20:00:00Z,26.5545,-82.1715,1.799,6.89,1111122 
SCCF RECON,ioos:station:SCCF:51:1,2011-09-10T21:00:00Z,26.5545,-82.1715,1.676,7.13,1111122 
SCCF RECON,ioos:station:SCCF:51:1,2011-09-10T22:00:00Z,26.5545,-82.1715,1.563,7.22,1111122 
SCCF RECON,ioos:station:SCCF:51:1,2011-09-10T23:00:00Z,26.5545,-82.1715,1.488,8.0,1111122 
SCCF RECON,ioos:station:SCCF:51:1,2011-09-11T00:00:00Z,26.5545,-82.1715,1.493,7.74,1111122 
SCCF RECON,ioos:station:SCCF:51:1,2011-09-11T01:00:00Z,26.5545,-82.1715,1.577,7.44,1111122 
SCCF RECON,ioos:station:SCCF:51:1,2011-09-11T02:00:00Z,26.5545,-82.1715,1.688,6.9,1111122 
SCCF RECON,ioos:station:SCCF:51:1,2011-09-11T03:00:00Z,26.5545,-82.1715,1.814,6.53,1111122 
SCCF RECON,ioos:station:SCCF:51:1,2011-09-11T04:00:00Z,26.5545,-82.1715,1.91,6.22,1111122 
SCCF RECON,ioos:station:SCCF:51:1,2011-09-11T05:00:00Z,26.5545,-82.1715,1.948,6.23,1111122 
SCCF RECON,ioos:station:SCCF:51:1,2011-09-11T06:00:00Z,26.5545,-82.1715,1.923,6.15,1111122 
SCCF RECON,ioos:station:SCCF:51:1,2011-09-11T07:00:00Z,26.5545,-82.1715,1.862,5.62,1111122 
SCCF RECON,ioos:station:SCCF:51:1,2011-09-11T08:00:00Z,26.5545,-82.1715,1.78,5.93,1111122 
SCCF RECON,ioos:station:SCCF:51:1,2011-09-11T09:00:00Z,26.5545,-82.1715,1.69,5.75,1111122 
SCCF RECON,ioos:station:SCCF:51:1,2011-09-11T10:00:00Z,26.5545,-82.1715,1.623,5.45,1111122 
SCCF RECON,ioos:station:SCCF:51:1,2011-09-11T11:00:00Z,26.5545,-82.1715,1.59,5.35,1111122 
SCCF RECON,ioos:station:SCCF:51:1,2011-09-11T12:00:00Z,26.5545,-82.1715,1.62,5.59,1111122 
SCCF RECON,ioos:station:SCCF:51:1,2011-09-11T13:00:00Z,26.5545,-82.1715,1.7,6.45,1111122 
SCCF RECON,ioos:station:SCCF:51:1,2011-09-11T14:00:00Z,26.5545,-82.1715,1.817,5.75,1111122 
SCCF RECON,ioos:station:SCCF:51:1,2011-09-11T15:00:00Z,26.5545,-82.1715,1.959,5.77,1111122 
SCCF RECON,ioos:station:SCCF:51:1,2011-09-11T16:00:00Z,26.5545,-82.1715,2.072,5.91,1111122 
SCCF RECON,ioos:station:SCCF:51:1,2011-09-11T17:00:00Z,26.5545,-82.1715,2.107,6.2,1111122 
SCCF RECON,ioos:station:SCCF:51:1,2011-09-11T18:00:00Z,26.5545,-82.1715,2.071,6.58,1111122 
SCCF RECON,ioos:station:SCCF:51:1,2011-09-11T19:00:00Z,26.5545,-82.1715,1.991,6.75,1111122 